Location: Unspecified
(49.2170°N, 0.0000°E)
Time: 23:39:20
(UTC+00:00)

Explorer 7 - Pass Details

Date: 27 January 2021
Orbit: 484 x 677 km, 50.3° (Epoch: 06 March)

Event Time Altitude Azimuth Distance (km) Brightness Sun altitude
Exits shadow 04:48:02 37° 84° (E) 818 8.1 -27.6°
Drops below altitude 10° 04:50:34 10° 77° (ENE) 1,770 10.4 -27.2°
Sets 04:52:51 0° 75° (ENE) 2,693 11.6 -26.8°
